Location: Marcé
(47.5801°N, 0.3280°W)
Time: 05:11:29
(UTC+01:00)

Envisat - Pass Details

Date: 23 October 2021
Orbit: 764 x 766 km, 98.2° (Epoch: 04 December)

Event Time Altitude Azimuth Distance (km) Brightness Sun altitude
Rises 19:53:25 0° 223° (SW) 3,224 7.1 -9.9°
Reaches altitude 10° 19:57:41 10° 258° (WSW) 2,305 7.1 -10.6°
Maximum altitude 19:59:07 11° 275° (W) 2,230 6.9 -10.9°
Drops below altitude 10° 20:00:34 10° 292° (WNW) 2,310 6.6 -11.1°
Sets 20:04:53 0° 327° (NNW) 3,244 6.7 -11.8°
